Terminal Aerodrome Forecast
Issued by NWS

Home | Current Version | Previous Version | Text Only | Print | Product List | Glossary On
Versions: 1 2 3 4 5 6 7 8 9 10 11 12 13 14 15 16 17 18 19 20 21 22 23 24 25 26 27 28 29 30
000
FTUS45 KLKN 222324
TAFWMC
TAF
KWMC 222324Z 2300/2324 02007KT P6SM SCT120
     FM230400 03015G25KT P6SM FEW150
     FM231400 04010KT P6SM SKC
     FM232000 VRB06G16KT P6SM VCTS BKN120CB=

USA.gov is the U.S. government's official web portal to all federal, state and local government web resources and services.